BEIDOU 6

Last updated on Sept. 27, 2020, 5:41 a.m. UTC

1 37210U 10057A   20270.98601212 -.00000135  00000-0  00000-0 0  9996
2 37210   0.9847  55.9719 0006067 126.5336 338.6500  1.00272668 36336
UTC
Height (km)
Latitude
Longitude
Inclination
Orbital Period
UTC large
Height (km)
Speed (km/s)
/
Latitude / Longitude
Inclination (degrees)
Orbital Period (minutes)
Azimuth
Elevation
Range (km)
Doppler Factor
iOS Compass Heading
iOS Angle

Next 30 passes for location: Hong Kong

Rise time Rise Azimuth (degrees) Set time Set Azimuth (degrees) Duration Max altitude (degrees)

No matching passes for this satellites